Retour au catalogue

STARLINK-32539

ActifCommunicationsVLEO
NORAD 62022·PAYLOAD·🇺🇸 United States

Lancé Nov 18, 2024 depuis Vandenberg Space Force Base

Loading…

Prochains Passages (prochaines 24 heures)

TLE

FraisSource: CelesTrak SupGP

Époque: Sep 14, 2026, 22:30 UTC

1 62022C 24213Q   26257.93798611 -.00009037  00000+0 -26715-3 0  2571
2 62022  53.1583 355.5173 0001187  88.0842  75.5972 15.34378131    17

Suivez STARLINK-32539 en temps réel avec AllMySat

Download on the App Store